Flag for Germany Weather past 2 weeks in Alsfeld, Hesse, Germany

Now
30 °F

Passing clouds.


Feels Like: 30 °F
Forecast: 30 / 53 °F
Wind: 2 mph from Southeast

Location: Fritzlar

Current Time: Mar 7, 2015 at 5:53:27 AM

Latest Report: Mar 7, 2015 at 5:00 AM


Visibility: 8 mi

Pressure: 30.55 "Hg

Humidity: 90%

Dew point: 28 °F

Location of AlsfeldLocation

Historic Weather in Alsfeld — Graph

°F

Alsfeld temperature yesterday

Maximum temperature yesterday: 43 °F (at 4:00 PM)
Minimum temperature yesterday: 28 °F (at 6:00 AM)
Average temperature yesterday: 35 °F

Past Weeks' High & Low Weather Summary

 TemperatureHumidityPressure
High50 °F (Mar 1, 4:00 PM)96% (Feb 25, 1:00 AM)30.65 "Hg (Feb 25, 1:00 AM)
Low28 °F (Mar 6, 6:00 AM)42% (Mar 2, 3:00 PM)29.41 "Hg (Feb 21, 7:00 AM)
Average38 °F79%29.97 "Hg
* Reported Feb 20 4:00 AM — Mar 7 4:00 AM, Alsfeld, Weather by CustomWeather, © 2015

Note: Actual official high and low records may vary slightly from our data, if they occured in-between our weather recording intervals... More about our weather records

Advertising

Alsfeld weather history for previous 24 hours

 ConditionsComfort  
Time TempWeatherWind HumidityBarometerVisibility
4:00 AM
Sat, Mar 7
29 °FClear.2 mph92%30.56 "Hg8 mi
3:00 AM30 °FClear.2 mph92%30.58 "Hg8 mi
2:00 AM31 °FClear.1 mph93%30.59 "Hg9 mi
1:00 AM33 °FPassing clouds.No wind91%30.59 "Hg9 mi
12:00 AM35 °FClear.2 mph87%30.58 "Hg9 mi
11:00 PM
Fri, Mar 6
37 °FPassing clouds.5 mph82%30.58 "Hg11 mi
10:00 PM39 °FOvercast.3 mph80%30.58 "Hg12 mi
9:00 PM40 °FOvercast.2 mph81%30.59 "Hg12 mi
8:00 PM40 °FOvercast.1 mph77%30.59 "Hg11 mi
7:00 PM40 °FOvercast.1 mph75%30.59 "Hg11 mi
6:00 PM42 °FOvercast.2 mph74%30.58 "Hg14 mi
5:00 PM42 °FOvercast.3 mph74%30.58 "Hg14 mi
4:00 PM43 °FOvercast.3 mph71%30.59 "Hg12 mi
3:00 PM42 °FOvercast.3 mph78%30.60 "Hg11 mi
2:00 PM39 °FOvercast.N/A84%30.61 "Hg11 mi
1:00 PM38 °FOvercast.No wind85%30.64 "Hg9 mi
12:00 PM36 °FOvercast.1 mph87%30.65 "Hg9 mi
11:00 AM33 °FOvercast.1 mph93%30.65 "Hg11 mi
10:00 AM33 °FOvercast.1 mph93%30.65 "Hg11 mi
9:00 AM31 °FOvercast.No wind96%30.65 "Hg11 mi
8:00 AM28 °FFog.No wind96%30.65 "Hg11 mi
7:00 AM28 °FFog.1 mph96%30.65 "Hg9 mi
6:00 AM28 °FFog.No wind96%30.65 "Hg9 mi
5:00 AM29 °FClear.No wind96%30.65 "Hg9 mi
Weather by CustomWeather, © 2015

See weather overviewHow to use our weather pages